Springfield, OH

8:01 AM EST on December 15, 2017 (GMT -0500)
Springfield-Beckley Municipal

Weather History for KSGH - March, 2014

Change the Weather History Date:

Monday, March 10, 2014

  Actual Average (KFFO) Record (KFFO)
Temperature  
Mean Temperature 46 °F -  
Max Temperature 61 °F 44 °F 77 °F (2009)
Min Temperature 32 °F 24 °F 10 °F (2003)
Degree Days  
Heating Degree Days 18    
Moisture  
Dew Point 34 °F    
Average Humidity 64    
Maximum Humidity 76    
Minimum Humidity 44    
Precipitation  
Precipitation 0.00 in - - ()
Sea Level Pressure  
Sea Level Pressure 29.84 in    
Wind  
Wind Speed 12 mph (SW)    
Max Wind Speed 20 mph    
Max Gust Speed 26 mph    
Visibility 7 miles    
Events      
Averages and records for this station are not official NWS values.
T = Trace of Precipitation, MM = Missing Value Source: NWS Daily Summary

Daily Weather History Graph

Daily Weather History Graph

Search for Another Location

Airport or City:

Trip Planner

Search our weather history database for the weather conditions in past years. The results will help you decide how hot, cold, wet, or windy it might be!

Date:

Astronomy

Mar. 10, 2014 Rise Set
Actual Time 7:54 AM EDT 7:37 PM EDT
Civil Twilight 7:27 AM EDT 8:04 PM EDT
Nautical Twilight 6:56 AM EDT 8:35 PM EDT
Astronomical Twilight 6:25 AM EDT 9:06 PM EDT
Moon 2:20 PM EDT (3/10) 4:05 AM EDT (3/10)
Length of Visible Light 12h 36m
Length of Day
11h 42m
Waxing Gibbous, 70% of the Moon is Illuminated
Mar 10
Waxing Gibbous
Mar 16
Full
Mar 23
Last Quarter
Mar 30
New
Apr 7
First Quarter

Hourly Weather History & Observations

Time (EDT) Temp. Windchill Dew Point Humidity Pressure Visibility Wind Dir Wind Speed Gust Speed Precip Events Conditions
12:56 AM 32.0 °F 25.6 °F 24.1 °F 73% 30.01 in 8.0 mi SW 6.9 mph - N/A   Clear
1:56 AM 36.0 °F 28.5 °F 26.1 °F 67% 29.98 in 8.0 mi WSW 10.4 mph - N/A   Clear
2:56 AM 36.0 °F 28.0 °F 28.0 °F 73% 29.96 in 8.0 mi WSW 11.5 mph - N/A   Clear
3:56 AM 36.9 °F 29.6 °F 29.1 °F 74% 29.94 in 7.0 mi SW 10.4 mph - N/A   Clear
4:56 AM 36.9 °F 27.8 °F 29.1 °F 74% 29.91 in 7.0 mi SW 15.0 mph - N/A   Clear
5:56 AM 36.9 °F 28.7 °F 30.0 °F 76% 29.91 in 7.0 mi SW 12.7 mph - N/A   Clear
6:56 AM 36.9 °F 29.1 °F 30.0 °F 76% 29.89 in 7.0 mi SW 11.5 mph - N/A   Clear
7:56 AM 36.9 °F 28.7 °F 30.0 °F 76% 29.88 in 7.0 mi SW 12.7 mph - N/A   Clear
8:56 AM 38.8 °F 31.6 °F 31.1 °F 74% 29.89 in 5.0 mi SW 11.5 mph - N/A   Haze
9:56 AM 41.0 °F 32.8 °F 32.0 °F 70% 29.89 in 5.0 mi SW 16.1 mph - N/A   Haze
10:56 AM 43.0 °F 36.4 °F 34.0 °F 71% 29.88 in 5.0 mi SW 12.7 mph 19.6 mph N/A   Haze
11:56 AM 46.9 °F - 36.9 °F 68% 29.86 in 5.0 mi SW 19.6 mph 25.3 mph N/A   Haze
12:56 PM 50.0 °F - 37.9 °F 63% 29.86 in 5.0 mi SW 19.6 mph - N/A   Haze
1:56 PM 52.9 °F - 38.8 °F 59% 29.82 in 5.0 mi SW 15.0 mph - N/A   Haze
2:56 PM 56.8 °F - 38.8 °F 51% 29.79 in 6.0 mi SW 13.8 mph - N/A   Haze
3:56 PM 59.9 °F - 38.8 °F 46% 29.75 in 6.0 mi SW 17.3 mph 24.2 mph N/A   Haze
4:56 PM 61.9 °F - 39.9 °F 44% 29.74 in 6.0 mi SW 17.3 mph 26.5 mph N/A   Haze
5:56 PM 59.0 °F - 38.8 °F 47% 29.73 in 6.0 mi SW 17.3 mph - N/A   Haze
6:56 PM 56.8 °F - 38.8 °F 51% 29.72 in 7.0 mi SW 12.7 mph - N/A   Clear
7:56 PM 54.9 °F - 37.9 °F 53% 29.74 in 8.0 mi WSW 10.4 mph - N/A   Clear
8:56 PM 50.9 °F - 36.9 °F 59% 29.76 in 8.0 mi WSW 8.1 mph - N/A   Clear
9:56 PM 48.9 °F - 36.9 °F 63% 29.77 in 8.0 mi WSW 9.2 mph - N/A   Clear
10:56 PM 50.0 °F - 37.9 °F 63% 29.77 in 8.0 mi WSW 11.5 mph - N/A   Clear
11:56 PM 47.8 °F - 36.9 °F 66% 29.76 in 8.0 mi SW 9.2 mph - N/A   Clear